This is the latest recevied weather packets stored in our database for station/object KN6WGU. If no packets are shown the sender has not sent any weather packets the latest 10 day(s).
| Time | Temp. | Humidity | Pressure | Rain* | Wind** | Luminosity | Snow |
|---|---|---|---|---|---|---|---|
| 1777410538 | 19.44° C | 67% | 1005.1 hPa | 0 mm | - | 131 W/m² | - |
| 1777410236 | 19.44° C | 65% | 1005.3 hPa | 0 mm | - | 176 W/m² | - |
| 1777409932 | 20° C | 64% | 1005.3 hPa | 0 mm | - | 105 W/m² | - |
| 1777409627 | 20.56° C | 63% | 1005.1 hPa | 0 mm | - | 157 W/m² | - |
| 1777409324 | 20.56° C | 64% | 1005.3 hPa | 0 mm | - | 287 W/m² | - |
| 1777409019 | 20.56° C | 63% | 1005.1 hPa | 0 mm | - | 242 W/m² | - |
| 1777408716 | 21.11° C | 62% | 1005.1 hPa | 0 mm | - | 272 W/m² | - |
| 1777408413 | 20.56° C | 61% | 1005.1 hPa | 0 mm | - | 279 W/m² | - |
| 1777408112 | 20° C | 62% | 1005.1 hPa | 0 mm | - | 246 W/m² | - |
| 1777407808 | 20.56° C | 62% | 1005.1 hPa | 0 mm | - | 193 W/m² | - |
| 1777407504 | 20.56° C | 62% | 1005.3 hPa | 0 mm | - | 235 W/m² | - |
| 1777407198 | 21.11° C | 60% | 1005.1 hPa | 0 mm | - | 222 W/m² | - |
| 1777406894 | 20.56° C | 59% | 1005.1 hPa | 0 mm | - | 665 W/m² | - |
| 1777406589 | 21.11° C | 63% | 1004.9 hPa | 0 mm | - | 541 W/m² | - |
| 1777406285 | 21.67° C | 60% | 1004.9 hPa | 0 mm | - | 201 W/m² | - |
| 1777405984 | 21.11° C | 61% | 1005.1 hPa | 0 mm | - | 240 W/m² | - |
| 1777405681 | 21.11° C | 61% | 1004.9 hPa | 0 mm | - | 203 W/m² | - |
| 1777405378 | 21.11° C | 61% | 1005.2 hPa | 0 mm | - | 722 W/m² | - |
| 1777405075 | 21.11° C | 62% | 1004.8 hPa | 0 mm | - | 736 W/m² | - |
| 1777404769 | 20.56° C | 61% | 1005.1 hPa | 0 mm | - | 236 W/m² | - |
| 1777404465 | 20.56° C | 60% | 1005 hPa | 0 mm | - | 439 W/m² | - |
| 1777404162 | 20.56° C | 62% | 1005 hPa | 0 mm | - | 298 W/m² | - |
| 1777403857 | 20.56° C | 62% | 1005.2 hPa | 0 mm | - | 732 W/m² | - |
| 1777403552 | 20.56° C | 62% | 1005.1 hPa | 0 mm | - | 199 W/m² | - |
| 1777403247 | 20.56° C | 63% | 1005.2 hPa | 0 mm | - | 519 W/m² | - |
* Rain latest hour (hover to see other rain measurements)
** Current wind speed in m/s (hover to see current wind gust speed)